Location: ????????
(38.4362°N, 22.8767°E)
Time: 16:46:30
(UTC+00:00)

ACS3 Solar Sail - Pass Details

Date: 26 June 2024
Orbit: 993 x 1023 km, 97.4° (Epoch: 21 July)

Event Time Altitude Azimuth Distance (km) Brightness Sun altitude
Exits shadow 20:04:08 28° 172° (S) 1,783 5.7 -19.2°
Maximum altitude 20:07:41 82° 258° (WSW) 1,009 4.8 -19.6°
Drops below altitude 10° 20:13:56 10° 347° (NNW) 2,764 8.2 -20.3°
Sets 20:16:25 0° 348° (NNW) 3,717 9.1 -20.6°
